星链-32755 (STARLINK-32755)

导读

STARLINK-32755是美国星链项目中的一颗卫星,于2025年1月27日北京时间08:00发射升空。它隶属于SpaceX公司打造的星链星座网络,该星座旨在为全球各地提供高速低延迟的互联网接入服务,这颗卫星入轨后将进一步扩充星链星座规模,提升全球网络覆盖能力与服务容量。

基本信息
目录编号:
62842
目录名称:
STARLINK-32755
国际标识:
2025-019P
轨道中心:
EARTH
卫星名称:
星链-32755
卫星全名:
星链-32755 (STARLINK-32755)
卫星状态:
在轨 (已飞行503 天)
发射日期:
2025-01-27 UTC
国别 :
美国 (US)
星等 :
--
轨道信息
数据来源 国际轨道数据
星历时间: 2026-06-14T06:43:42+0800
11小时前
查看轨道信息
半长轴: 6861.105km
偏心率: 0.0003779
轨道倾角: 42.989°
近地点辐角 288.186°
升交点赤经 258.323°
平近点角 71.858°
近地点: 480.375km
远地点: 485.561km
周期: 94.265分钟
每日圈数: 15.276074
详细信息
固有亮度:
5
最大亮度:
2.5
卫星平台:
Starlink V1.0
覆盖范围:
全球
运营商:
太空探索技术公司
运营商所在国:
美国
制造商(研发单位):
太空探索技术公司
制造商所在国:
美国
使用方式:
暂无
卫星简介
Starlink 计划是 SpaceX 推出的全球卫星互联网项目,通过发射低轨道卫星,为全球尤其是偏远地区提供高速、低延迟的互联网服务。自 2019 年起,Starlink 已部署数千颗卫星,旨在缩小全球数字鸿沟,推动互联网普及。该项目还为军事、航空等行业提供通信支持,带来广泛经济效益。
2D轨道图
3D轨道图
轨道高度分析图
轨道倾角分析图
轨道综合分析图
查看轨道综合分析图